Flag for Switzerland Weather past 2 weeks in Bern, Bern, Switzerland

Now
59 °F

Overcast.


Feels Like: 59 °F
Forecast: 49 / 70 °F
Wind: 5 mph from East

Location: Bern / Belp

Current Time: Sep 30, 2014 at 11:22:19 PM

Latest Report: Sep 30, 2014 at 10:50 PM


Visibility: 5 mi

Pressure: 30.33 "Hg

Humidity: 94%

Dew point: 57 °F

Location of BernLocation

Historic Weather in Bern — Graph

°F

Bern temperature yesterday

Maximum temperature yesterday: 75 °F (at 3:20 PM)
Minimum temperature yesterday: 46 °F (at 7:20 AM)
Average temperature yesterday: 60 °F

Past Weeks' High & Low Weather Summary

 TemperatureHumidityPressure
High77 °F (Sep 16, 3:20 PM)100% (Sep 16, 11:50 PM)30.33 "Hg (Sep 16, 11:50 PM)
Low39 °F (Sep 23, 7:20 AM)45% (Sep 23, 3:20 PM)29.86 "Hg (Sep 17, 2:50 PM)
Average58 °F84%30.11 "Hg
* Reported Sep 15 10:20 PM — Sep 30 10:20 PM, Bern, Weather by CustomWeather, © 2014

Note: Actual official high and low records may vary slightly from our data, if they occured in-between our weather recording intervals... More about our weather records

Advertising

Bern weather history for previous 24 hours

 ConditionsComfort  
Time TempWeatherWind HumidityBarometerVisibility
10:20 PM
Sep 30
59 °FMostly cloudy.3 mph94%30.33 "Hg4 mi
9:50 PM59 °FPassing clouds.5 mph94%30.33 "Hg6 mi
9:20 PM59 °FPassing clouds.3 mph94%30.33 "HgN/A
8:50 PM59 °FPassing clouds.3 mph94%30.33 "HgN/A
8:20 PM59 °FPassing clouds.3 mph94%30.33 "HgN/A
7:50 PM59 °FPartly sunny.3 mph100%30.30 "HgN/A
7:20 PM61 °FBroken clouds.3 mph88%30.30 "HgN/A
6:50 PM63 °FPartly sunny.2 mph88%30.30 "HgN/A
6:20 PM63 °FPartly sunny.2 mph88%30.30 "HgN/A
5:50 PM63 °FBroken clouds.3 mph88%30.30 "HgN/A
5:20 PM64 °FBroken clouds.3 mph88%30.30 "HgN/A
4:50 PM63 °FScattered clouds.7 mph88%30.33 "HgN/A
4:20 PM63 °FMore clouds than sun.6 mph88%30.33 "HgN/A
3:50 PM64 °FMore clouds than sun.5 mph83%30.33 "HgN/A
3:20 PM63 °FLight rain. Overcast.6 mph88%30.33 "HgN/A
2:50 PM63 °FSprinkles. Overcast.6 mph88%30.33 "HgN/A
2:20 PM63 °FSprinkles. Overcast.6 mph94%30.33 "HgN/A
1:50 PM63 °FSprinkles. Partly sunny.5 mph94%30.33 "Hg6 mi
1:20 PM64 °FLight rain. Partly sunny.5 mph88%30.33 "HgN/A
12:50 PM63 °FLight rain. Partly sunny.2 mph94%30.33 "HgN/A
12:20 PM63 °FLight rain. Partly sunny.5 mph94%30.33 "HgN/A
11:50 AM64 °FLight rain. Partly sunny.3 mph88%30.33 "HgN/A
11:20 AM63 °FScattered clouds.3 mph88%30.33 "HgN/A
10:50 AM63 °FMostly cloudy.2 mph88%30.33 "HgN/A
10:20 AM61 °FPartly sunny.5 mph94%30.33 "HgN/A
9:50 AM61 °FScattered clouds.2 mph94%30.33 "HgN/A
9:20 AM59 °FOvercast.2 mph100%30.33 "HgN/A
8:50 AM57 °FOvercast.1 mph100%30.33 "Hg6 mi
8:20 AM57 °FOvercast.1 mph100%30.33 "Hg6 mi
7:50 AM55 °FOvercast.1 mph100%30.30 "Hg4 mi
7:20 AM57 °FOvercast.No wind94%30.30 "Hg4 mi
6:50 AM57 °FOvercast.No wind100%30.30 "Hg6 mi
6:20 AM57 °FOvercast.2 mph94%30.30 "Hg5 mi
5:50 AM57 °FOvercast.2 mph100%30.30 "Hg4 mi
5:20 AM57 °FOvercast.3 mph94%30.30 "Hg6 mi
4:50 AM55 °FOvercast.1 mph100%30.30 "Hg4 mi
4:20 AM55 °FMostly cloudy.1 mph100%30.30 "Hg4 mi
3:50 AM55 °FFog.1 mph100%30.30 "Hg0 mi
3:20 AM55 °FFog.1 mph94%30.30 "Hg2 mi
2:50 AM57 °FFog.2 mph100%30.30 "Hg2 mi
2:20 AM59 °FPartly cloudy.1 mph100%30.30 "Hg4 mi
1:50 AM59 °FOvercast.1 mph94%30.30 "Hg4 mi
1:20 AM59 °FPartly cloudy.1 mph100%30.30 "Hg4 mi
12:50 AM59 °FPassing clouds.2 mph100%30.30 "Hg4 mi
12:20 AM59 °FOvercast.1 mph100%30.30 "Hg4 mi
11:50 PM
Sep 29
61 °FOvercast.1 mph94%30.30 "HgN/A
11:20 PM61 °FLight rain. Partly cloudy.1 mph94%30.30 "HgN/A
Weather by CustomWeather, © 2014

See weather overviewHow to use our weather pages